Data from Weather Station test

Home
 
SELECT * FROM wx_data WHERE id > 3
 
ID
int :
DEVICE_ID
int :
TEMP_IN
int :
TEMP_OUT
int :
HUMID
int :
ATMOS
int :
RAIN
int :
TIME
timestamp :
4.  3.  284.  250.  46.  1010.  0.  2018-12-07 15:25:13. 
5.  3.  284.  252.  46.  1009.  0.  2018-12-07 15:27:17. 
6.  3.  286.  251.  45.  1010.  0.  2018-12-07 16:34:07. 
7.  3.  278.  285.  46.  1010.  0.  2018-12-07 17:41:02. 
8.  3.  276.  192.  51.  1010.  0.  2018-12-07 18:47:56. 
9.  3.  274.  190.  53.  1012.  0.  2018-12-07 19:54:50. 
10.  3.  269.  172.  55.  1012.  0.  2018-12-07 21:01:45. 
11.  3.  268.  166.  56.  1012.  0.  2018-12-07 22:08:39. 
12.  3.  258.  162.  57.  1014.  0.  2018-12-07 23:15:33. 
13.  3.  255.  153.  60.  1014.  0.  2018-12-08 00:22:28. 
14.  3.  239.  152.  61.  1013.  0.  2018-12-08 01:29:21. 
15.  3.  238.  152.  62.  1013.  0.  2018-12-08 02:36:15. 
16.  3.  239.  151.  63.  1014.  0.  2018-12-08 03:43:10. 
17.  3.  231.  139.  64.  1014.  0.  2018-12-08 04:50:03. 
18.  3.  233.  141.  65.  1014.  0.  2018-12-08 05:56:57. 
19.  3.  241.  154.  65.  1014.  0.  2018-12-08 07:03:51. 
20.  3.  243.  188.  66.  1015.  0.  2018-12-08 08:10:45. 
21.  3.  239.  171.  65.  1016.  0.  2018-12-08 09:17:39. 
22.  3.  248.  181.  66.  1016.  0.  2018-12-08 10:24:34. 
23.  3.  259.  205.  62.  1015.  0.  2018-12-08 11:31:28. 
24.  3.  274.  222.  60.  1016.  0.  2018-12-08 12:38:22. 
25.  3.  272.  223.  57.  1016.  0.  2018-12-08 13:45:16. 
26.  3.  270.  206.  56.  1017.  0.  2018-12-08 14:52:10. 
27.  3.  278.  201.  57.  1017.  0.  2018-12-08 15:59:04. 
28.  3.  274.  206.  56.  1017.  0.  2018-12-08 17:05:59. 
29.  3.  274.  201.  55.  1017.  0.  2018-12-08 18:12:53. 
30.  3.  268.  182.  60.  1017.  0.  2018-12-08 19:19:48. 
31.  3.  273.  179.  57.  1018.  0.  2018-12-08 20:26:42. 
32.  3.  266.  176.  57.  1019.  0.  2018-12-08 21:33:37. 
33.  3.  259.  170.  61.  1018.  0.  2018-12-08 22:40:31. 
34.  3.  250.  171.  62.  1019.  0.  2018-12-08 23:47:25. 
35.  3.  252.  175.  63.  1019.  0.  2018-12-09 00:54:19. 
36.  3.  244.  168.  63.  1018.  0.  2018-12-09 02:01:13. 
37.  3.  244.  167.  64.  1018.  0.  2018-12-09 03:08:07. 
38.  3.  248.  165.  64.  1020.  0.  2018-12-09 04:15:01. 
39.  3.  243.  164.  65.  1020.  0.  2018-12-09 05:21:55. 
40.  3.  236.  173.  65.  1020.  0.  2018-12-09 06:28:49. 
41.  3.  248.  187.  65.  1021.  0.  2018-12-09 07:35:43. 
42.  3.  254.  201.  64.  1021.  0.  2018-12-09 08:42:37. 
43.  3.  260.  211.  64.  1020.  0.  2018-12-09 09:49:31. 
44.  3.  268.  218.  62.  1020.  0.  2018-12-09 10:56:25. 
45.  3.  278.  228.  60.  1022.  0.  2018-12-09 12:03:20. 
46.  3.  293.  225.  57.  1022.  0.  2018-12-09 13:10:14. 
47.  3.  285.  222.  54.  1021.  0.  2018-12-09 14:17:08. 
48.  3.  294.  227.  52.  1020.  0.  2018-12-09 15:24:03. 
49.  3.  307.  266.  52.  1020.  0.  2018-12-09 16:30:58. 
50.  3.  292.  285.  53.  1021.  0.  2018-12-09 17:37:52. 
51.  3.  294.  195.  56.  1020.  0.  2018-12-09 18:44:46. 
52.  3.  285.  186.  60.  1021.  0.  2018-12-09 19:51:40. 
53.  3.  274.  181.  61.  1021.  0.  2018-12-09 20:58:35. 
54.  3.  280.  183.  61.  1022.  0.  2018-12-09 22:05:29. 
55.  3.  277.  179.  63.  1021.  0.  2018-12-09 23:12:23. 
56.  3.  261.  175.  64.  1021.  0.  2018-12-10 00:19:17. 
57.  3.  256.  174.  65.  1020.  0.  2018-12-10 01:26:12. 
58.  3.  257.  161.  65.  1020.  0.  2018-12-10 02:33:06. 
59.  3.  246.  153.  66.  1018.  0.  2018-12-10 03:40:00. 
60.  3.  247.  146.  65.  1018.  0.  2018-12-10 04:21:03. 
61.  3.  248.  140.  66.  1019.  0.  2018-12-10 05:27:58. 
62.  3.  239.  160.  66.  1019.  0.  2018-12-10 06:34:52. 
63.  3.  247.  194.  66.  1019.  0.  2018-12-10 07:41:46. 
64.  3.  253.  224.  63.  1020.  0.  2018-12-10 08:48:40. 
65.  3.  269.  243.  61.  1019.  0.  2018-12-10 09:55:34. 
66.  3.  294.  257.  60.  1019.  0.  2018-12-10 11:02:29. 
67.  3.  292.  266.  57.  1019.  0.  2018-12-10 12:09:23. 
68.  3.  297.  278.  55.  1017.  0.  2018-12-10 13:16:17. 
69.  3.  324.  298.  50.  1017.  0.  2018-12-10 14:23:12. 
70.  3.  334.  293.  44.  1017.  0.  2018-12-10 15:30:06. 
71.  3.  324.  327.  52.  1016.  0.  2018-12-10 16:37:01. 
72.  3.  284.  295.  54.  1016.  0.  2018-12-10 17:43:55. 
73.  3.  289.  233.  51.  1017.  0.  2018-12-10 18:50:50. 
74.  3.  282.  216.  50.  1017.  0.  2018-12-10 19:57:45. 
75.  3.  287.  206.  53.  1016.  0.  2018-12-10 21:04:39. 
76.  3.  282.  200.  54.  1016.  0.  2018-12-10 22:11:34. 
77.  3.  278.  189.  52.  1016.  0.  2018-12-10 23:18:29. 
78.  3.  281.  177.  53.  1015.  0.  2018-12-11 00:25:23. 
79.  3.  273.  176.  54.  1015.  0.  2018-12-11 01:32:18. 
80.  3.  270.  196.  62.  1014.  0.  2018-12-11 02:39:12. 
81.  3.  267.  189.  65.  1014.  0.  2018-12-11 03:46:07. 
82.  3.  265.  175.  64.  1015.  0.  2018-12-11 04:53:01. 
83.  3.  265.  182.  72.  1015.  0.  2018-12-11 05:59:55. 
84.  3.  259.  192.  71.  1013.  0.  2018-12-11 07:06:50. 
85.  3.  269.  225.  72.  1014.  0.  2018-12-11 08:13:44. 
86.  3.  277.  254.  72.  1014.  0.  2018-12-11 09:20:38. 
87.  3.  294.  267.  66.  1014.  0.  2018-12-11 10:27:33. 
88.  3.  303.  265.  64.  1013.  0.  2018-12-11 11:34:27. 
89.  3.  322.  287.  62.  1013.  0.  2018-12-11 12:41:21. 
90.  3.  328.  310.  47.  1012.  0.  2018-12-11 13:48:16. 
91.  3.  332.  312.  32.  1012.  0.  2018-12-11 14:55:11. 
92.  3.  349.  329.  35.  1011.  0.  2018-12-11 16:02:05. 
93.  3.  337.  368.  34.  1012.  0.  2018-12-11 17:09:00. 
94.  3.  326.  264.  43.  1012.  0.  2018-12-11 18:15:54. 
95.  3.  317.  240.  51.  1013.  0.  2018-12-11 19:22:49. 
96.  3.  306.  226.  53.  1013.  0.  2018-12-11 20:29:43. 
97.  3.  304.  211.  54.  1013.  0.  2018-12-11 21:36:38. 
98.  3.  298.  205.  57.  1014.  0.  2018-12-11 22:43:32. 
99.  3.  292.  203.  60.  1014.  0.  2018-12-11 23:50:26. 
100.  3.  289.  200.  60.  1014.  0.  2018-12-12 00:57:20. 
101.  3.  289.  206.  61.  1014.  0.  2018-12-12 02:04:15. 
102.  3.  291.  204.  64.  1013.  0.  2018-12-12 03:11:09. 
103.  3.  283.  195.  66.  1013.  0.  2018-12-12 04:18:03. 
104.  3.  283.  197.  67.  1014.  0.  2018-12-12 05:24:58. 
105.  3.  283.  195.  67.  1014.  0.  2018-12-12 06:31:52. 
106.  3.  277.  208.  67.  1015.  0.  2018-12-12 07:38:46. 
107.  3.  280.  212.  65.  1017.  0.  2018-12-12 08:45:41. 
108.  3.  285.  213.  60.  1017.  0.  2018-12-12 09:52:35. 
109.  3.  289.  222.  55.  1018.  0.  2018-12-12 10:59:29. 
110.  3.  286.  236.  54.  1017.  0.  2018-12-12 12:06:24. 
111.  3.  291.  257.  51.  1017.  0.  2018-12-12 13:13:19. 
112.  3.  299.  271.  50.  1017.  0.  2018-12-12 14:20:20. 
113.  3.  287.  192.  53.  1020.  0.  2018-12-12 20:35:46. 
114.  3.  277.  181.  55.  1019.  0.  2018-12-12 21:42:41. 
115.  3.  268.  175.  57.  1021.  0.  2018-12-12 22:49:35. 
116.  3.  264.  168.  60.  1020.  0.  2018-12-12 23:56:29. 
117.  3.  258.  157.  61.  1020.  0.  2018-12-13 01:03:24. 
118.  3.  257.  167.  62.  1019.  0.  2018-12-13 03:17:11. 
119.  3.  260.  171.  62.  1019.  0.  2018-12-13 04:24:06. 
120.  3.  252.  175.  63.  1020.  0.  2018-12-13 05:31:00. 
121.  3.  251.  181.  64.  1021.  0.  2018-12-13 06:37:54. 
122.  3.  269.  194.  62.  1021.  0.  2018-12-13 07:44:49. 
123.  3.  266.  205.  55.  1021.  0.  2018-12-13 08:51:43. 
124.  3.  270.  196.  54.  1020.  0.  2018-12-13 09:58:37. 
125.  3.  278.  222.  53.  1022.  0.  2018-12-13 11:05:32. 
126.  3.  290.  225.  51.  1021.  0.  2018-12-13 12:12:26. 
127.  3.  282.  235.  47.  1021.  0.  2018-12-13 13:19:20. 
128.  3.  302.  252.  44.  1021.  0.  2018-12-13 14:26:15. 
129.  3.  303.  266.  40.  1020.  0.  2018-12-13 15:33:09. 
130.  3.  302.  312.  40.  1020.  0.  2018-12-13 16:40:04. 
131.  3.  299.  270.  42.  1020.  0.  2018-12-13 17:46:58. 
132.  3.  298.  204.  43.  1021.  0.  2018-12-13 18:53:52. 
133.  3.  297.  192.  44.  1022.  0.  2018-12-13 20:00:46. 
134.  3.  284.  182.  46.  1022.  0.  2018-12-13 21:07:41. 
135.  3.  286.  183.  47.  1022.  0.  2018-12-13 22:14:35. 
136.  3.  281.  174.  50.  1022.  0.  2018-12-13 23:21:30. 
137.  3.  269.  179.  51.  1021.  0.  2018-12-14 00:28:24. 
138.  3.  265.  182.  53.  1020.  0.  2018-12-14 01:35:19. 
139.  3.  262.  176.  54.  1019.  0.  2018-12-14 02:42:13. 
140.  3.  263.  170.  55.  1018.  0.  2018-12-14 03:49:07. 
141.  3.  256.  164.  56.  1019.  0.  2018-12-14 04:56:01. 
142.  3.  258.  167.  57.  1019.  0.  2018-12-14 06:02:56. 
143.  3.  254.  187.  57.  1019.  0.  2018-12-14 07:09:50. 
144.  3.  257.  203.  57.  1019.  0.  2018-12-14 08:16:44. 
145.  3.  277.  225.  56.  1020.  0.  2018-12-14 09:23:39. 
146.  3.  289.  233.  55.  1020.  0.  2018-12-14 10:30:33. 
147.  3.  294.  241.  55.  1020.  0.  2018-12-14 11:37:28. 
148.  3.  296.  249.  54.  1020.  0.  2018-12-14 12:44:22. 
149.  3.  300.  239.  53.  1020.  0.  2018-12-14 13:51:17. 
150.  3.  307.  241.  52.  1019.  0.  2018-12-14 14:58:11. 
151.  3.  313.  271.  52.  1019.  0.  2018-12-14 16:05:07. 
152.  3.  306.  251.  52.  1019.  0.  2018-12-14 17:12:02. 
153.  3.  306.  235.  53.  1020.  0.  2018-12-14 18:18:56. 
154.  3.  294.  196.  53.  1021.  0.  2018-12-14 19:25:51. 
155.  3.  289.  190.  54.  1020.  0.  2018-12-14 20:32:46. 
156.  3.  295.  191.  54.  1021.  0.  2018-12-14 21:39:40. 
157.  3.  257.  181.  61.  1020.  0.  2018-12-15 04:21:04. 
158.  3.  258.  180.  62.  1021.  0.  2018-12-15 05:27:58. 
159.  3.  256.  177.  62.  1020.  0.  2018-12-15 06:09:02. 
160.  3.  260.  188.  63.  1021.  0.  2018-12-15 07:15:56. 
161.  3.  261.  209.  63.  1020.  0.  2018-12-15 08:22:50. 
162.  3.  279.  217.  63.  1021.  0.  2018-12-15 09:29:44. 
163.  3.  277.  228.  61.  1021.  0.  2018-12-15 10:36:38. 
164.  3.  293.  237.  60.  1020.  0.  2018-12-15 11:43:33. 
165.  3.  293.  246.  60.  1020.  0.  2018-12-15 12:50:27. 
166.  3.  302.  243.  56.  1020.  0.  2018-12-15 13:57:21. 
167.  3.  308.  249.  54.  1018.  0.  2018-12-15 15:04:15. 
168.  3.  321.  266.  52.  1020.  0.  2018-12-15 16:11:10. 
169.  3.  322.  260.  52.  1019.  0.  2018-12-15 17:18:05. 
170.  3.  309.  232.  54.  1019.  0.  2018-12-15 18:25:00. 
171.  3.  295.  201.  56.  1019.  0.  2018-12-15 19:31:54. 
172.  3.  298.  196.  57.  1020.  0.  2018-12-15 20:38:48. 
173.  3.  296.  194.  60.  1019.  0.  2018-12-15 21:45:43. 
174.  3.  282.  191.  61.  1018.  0.  2018-12-15 22:52:37. 
175.  3.  278.  189.  62.  1018.  0.  2018-12-15 23:59:32. 
176.  3.  275.  187.  63.  1018.  0.  2018-12-16 01:06:27. 
177.  3.  271.  187.  64.  1016.  0.  2018-12-16 02:13:21. 
178.  3.  265.  184.  65.  1016.  0.  2018-12-16 03:20:15. 
179.  3.  262.  183.  65.  1016.  0.  2018-12-16 04:27:09. 
180.  3.  263.  185.  66.  1016.  0.  2018-12-16 05:34:04. 
181.  3.  265.  192.  70.  1016.  0.  2018-12-16 06:40:58. 
182.  3.  260.  204.  70.  1016.  0.  2018-12-16 07:47:52. 
183.  3.  273.  228.  71.  1016.  0.  2018-12-16 08:54:47. 
184.  3.  290.  243.  66.  1015.  0.  2018-12-16 10:01:41. 
185.  3.  298.  249.  65.  1015.  0.  2018-12-16 11:08:36. 
186.  3.  302.  255.  64.  1015.  0.  2018-12-16 12:15:30. 
187.  3.  308.  263.  64.  1014.  0.  2018-12-16 13:22:24. 
188.  3.  313.  259.  62.  1013.  0.  2018-12-16 14:29:18. 
189.  3.  323.  257.  61.  1012.  0.  2018-12-16 15:36:13. 
190.  3.  339.  272.  60.  1012.  0.  2018-12-16 16:43:07. 
191.  3.  323.  277.  62.  1011.  0.  2018-12-16 17:50:02. 
192.  3.  310.  223.  63.  1012.  0.  2018-12-16 18:56:56. 
193.  3.  303.  211.  65.  1011.  0.  2018-12-16 20:03:50. 
194.  3.  287.  209.  72.  1012.  0.  2018-12-16 21:10:45. 
195.  3.  291.  207.  73.  1012.  0.  2018-12-16 22:17:39. 
196.  3.  295.  204.  71.  1012.  0.  2018-12-16 23:24:34. 
197.  3.  287.  204.  70.  1011.  0.  2018-12-17 00:31:28. 
198.  3.  282.  203.  70.  1011.  0.  2018-12-17 01:38:23. 
199.  3.  281.  199.  70.  1010.  0.  2018-12-17 02:45:17. 
200.  3.  275.  196.  71.  1010.  0.  2018-12-17 03:52:12. 
201.  3.  277.  197.  72.  1009.  0.  2018-12-17 04:59:06. 
202.  3.  277.  197.  71.  1010.  0.  2018-12-17 06:06:00. 
203.  3.  270.  211.  72.  1010.  0.  2018-12-17 07:12:54. 
204.  3.  280.  233.  73.  1011.  0.  2018-12-17 08:19:49. 
205.  3.  289.  268.  70.  1010.  0.  2018-12-17 09:26:43. 
206.  3.  307.  278.  66.  1010.  0.  2018-12-17 10:33:37. 
207.  3.  316.  275.  64.  1010.  0.  2018-12-17 11:40:31. 
208.  3.  325.  291.  63.  1010.  0.  2018-12-17 12:47:26. 
209.  3.  340.  305.  61.  1009.  0.  2018-12-17 13:54:20. 
210.  3.  351.  309.  56.  1009.  0.  2018-12-17 15:01:15. 
211.  3.  363.  358.  53.  1009.  0.  2018-12-17 16:08:09. 
212.  3.  352.  311.  57.  1009.  0.  2018-12-17 17:15:04. 
213.  3.  329.  246.  62.  1007.  0.  2018-12-17 18:21:58. 
214.  3.  331.  250.  65.  1008.  0.  2018-12-17 19:03:02. 
215.  3.  323.  227.  64.  1010.  0.  2018-12-17 20:09:57. 
216.  3.  325.  226.  65.  1009.  0.  2018-12-17 21:16:51. 
217.  3.  318.  201.  62.  1009.  0.  2018-12-17 22:23:45. 
218.  3.  303.  202.  62.  1011.  0.  2018-12-17 23:30:40. 
219.  3.  298.  204.  61.  1010.  0.  2018-12-18 00:37:34. 
220.  3.  298.  207.  61.  1010.  0.  2018-12-18 01:44:28. 
221.  3.  293.  201.  62.  1010.  0.  2018-12-18 02:51:22. 
222.  3.  286.  206.  63.  1010.  0.  2018-12-18 03:58:16. 
223.  3.  294.  204.  65.  1011.  0.  2018-12-18 05:05:11. 
224.  3.  291.  198.  66.  1011.  0.  2018-12-18 06:12:05. 
225.  3.  290.  203.  71.  1011.  0.  2018-12-18 07:18:59. 
226.  3.  287.  213.  72.  1012.  0.  2018-12-18 08:25:54. 
227.  3.  290.  228.  72.  1012.  0.  2018-12-18 09:48:39. 
228.  3.  294.  212.  71.  1012.  0.  2018-12-18 10:55:34. 
229.  3.  312.  237.  57.  1013.  0.  2018-12-18 17:36:57. 
230.  3.  299.  225.  61.  1012.  0.  2018-12-18 18:43:51. 
231.  3.  306.  211.  61.  1013.  0.  2018-12-18 19:50:45. 
232.  3.  292.  205.  63.  1014.  0.  2018-12-18 20:57:39. 
233.  3.  290.  202.  63.  1014.  0.  2018-12-18 22:04:34. 
234.  3.  292.  200.  64.  1014.  0.  2018-12-18 23:11:28. 
235.  3.  284.  198.  64.  1014.  0.  2018-12-19 00:18:22. 
236.  3.  282.  190.  65.  1013.  0.  2018-12-19 01:25:16. 
237.  3.  275.  179.  65.  1013.  0.  2018-12-19 02:32:11. 
238.  3.  279.  174.  66.  1013.  0.  2018-12-19 03:39:05. 
239.  3.  270.  181.  66.  1015.  0.  2018-12-19 04:45:59. 
240.  3.  275.  182.  67.  1015.  0.  2018-12-19 05:52:53. 
241.  3.  269.  195.  67.  1015.  0.  2018-12-19 06:59:48. 
242.  3.  272.  210.  71.  1016.  0.  2018-12-19 08:06:42. 
243.  3.  277.  218.  64.  1015.  0.  2018-12-19 09:13:36. 
244.  3.  286.  235.  63.  1015.  0.  2018-12-19 10:20:31. 
245.  3.  295.  252.  61.  1016.  0.  2018-12-19 11:27:25. 
246.  3.  302.  257.  61.  1016.  0.  2018-12-19 12:34:20. 
247.  3.  314.  269.  56.  1015.  0.  2018-12-19 13:41:14. 
248.  3.  320.  285.  55.  1015.  0.  2018-12-19 14:48:08. 
249.  3.  329.  287.  52.  1016.  0.  2018-12-19 15:55:02. 
250.  3.  331.  330.  50.  1015.  0.  2018-12-19 17:01:57. 
251.  3.  311.  266.  52.  1016.  0.  2018-12-19 18:08:51. 
252.  3.  297.  218.  56.  1016.  0.  2018-12-19 19:15:46. 
253.  3.  302.  209.  60.  1016.  0.  2018-12-19 20:22:40. 
254.  3.  291.  211.  62.  1017.  0.  2018-12-19 21:29:34. 
255.  3.  290.  196.  65.  1019.  0.  2018-12-19 22:36:29. 
256.  3.  286.  196.  67.  1019.  0.  2018-12-19 23:43:23. 
257.  3.  291.  192.  67.  1018.  0.  2018-12-20 00:50:18. 
258.  3.  282.  183.  66.  1017.  0.  2018-12-20 01:57:12. 
259.  3.  275.  184.  66.  1017.  0.  2018-12-20 03:04:06. 
260.  3.  266.  181.  66.  1015.  0.  2018-12-20 04:11:01. 
261.  3.  263.  175.  67.  1016.  0.  2018-12-20 05:17:55. 
262.  3.  267.  186.  70.  1016.  0.  2018-12-20 06:24:49. 
263.  3.  258.  201.  71.  1016.  0.  2018-12-20 07:31:43. 
264.  3.  263.  222.  70.  1016.  0.  2018-12-20 08:38:38. 
265.  3.  276.  227.  70.  1016.  0.  2018-12-20 09:45:32. 
266.  3.  284.  240.  65.  1017.  0.  2018-12-20 10:52:27. 
267.  3.  288.  253.  62.  1016.  0.  2018-12-20 11:59:21. 
268.  3.  292.  263.  61.  1015.  0.  2018-12-20 13:06:15. 
269.  3.  300.  265.  56.  1016.  0.  2018-12-20 14:13:09. 
270.  3.  313.  254.  61.  1015.  0.  2018-12-20 15:20:03. 
271.  3.  317.  303.  56.  1015.  0.  2018-12-20 16:26:57. 
272.  3.  319.  291.  57.  1015.  0.  2018-12-20 17:33:52. 
273.  3.  308.  224.  60.  1015.  0.  2018-12-20 18:40:46. 
274.  3.  306.  213.  61.  1017.  0.  2018-12-20 19:47:40. 
275.  3.  301.  208.  62.  1016.  0.  2018-12-20 20:54:35. 
276.  3.  302.  206.  63.  1017.  0.  2018-12-20 21:35:38. 
277.  3.  295.  204.  65.  1017.  0.  2018-12-20 22:42:32. 
278.  3.  295.  202.  66.  1016.  0.  2018-12-20 23:49:26. 
279.  3.  296.  198.  66.  1014.  0.  2018-12-21 00:56:20. 
280.  3.  295.  197.  66.  1013.  0.  2018-12-21 02:03:15. 
281.  3.  282.  198.  66.  1013.  0.  2018-12-21 03:10:10. 
282.  3.  280.  196.  66.  1013.  0.  2018-12-21 04:17:04. 
283.  3.  281.  192.  67.  1013.  0.  2018-12-21 05:23:59. 
284.  3.  277.  188.  67.  1014.  0.  2018-12-21 06:30:53. 
285.  3.  276.  212.  70.  1014.  0.  2018-12-21 07:37:47. 
286.  3.  292.  220.  67.  1013.  0.  2018-12-21 08:44:42. 
287.  3.  291.  226.  67.  1014.  0.  2018-12-21 09:51:36. 
288.  3.  311.  258.  67.  1013.  0.  2018-12-21 10:58:30. 
289.  3.  311.  252.  65.  1013.  0.  2018-12-21 12:05:25. 
290.  3.  318.  264.  65.  1013.  0.  2018-12-21 13:12:19. 
291.  3.  322.  257.  65.  1014.  0.  2018-12-21 14:19:13. 
292.  3.  320.  260.  64.  1013.  0.  2018-12-21 15:26:08. 
293.  3.  320.  301.  64.  1012.  0.  2018-12-21 16:33:02. 
294.  3.  322.  277.  64.  1013.  0.  2018-12-21 17:39:56. 
295.  3.  312.  225.  64.  1013.  0.  2018-12-21 18:46:51. 
296.  3.  303.  216.  65.  1014.  0.  2018-12-21 19:53:45. 
297.  3.  308.  206.  65.  1013.  0.  2018-12-21 21:00:40. 
298.  3.  306.  204.  66.  1013.  0.  2018-12-21 22:07:34. 
299.  3.  296.  204.  66.  1015.  0.  2018-12-21 23:14:29. 
300.  3.  295.  208.  66.  1014.  0.  2018-12-22 00:21:23. 
301.  3.  301.  207.  67.  1014.  0.  2018-12-22 01:28:17. 
302.  3.  300.  208.  70.  1014.  0.  2018-12-22 02:35:11. 
303.  3.  292.  203.  71.  1013.  0.  2018-12-22 03:42:06. 
304.  3.  282.  203.  72.  1013.  0.  2018-12-22 04:49:00. 
305.  3.  287.  200.  72.  1014.  0.  2018-12-22 05:55:55. 
306.  3.  285.  212.  72.  1014.  0.  2018-12-22 07:02:49. 
307.  3.  291.  226.  71.  1014.  0.  2018-12-22 08:09:43. 
308.  3.  304.  248.  66.  1015.  0.  2018-12-22 09:16:38. 
309.  3.  301.  260.  65.  1013.  0.  2018-12-22 10:23:32. 
310.  3.  309.  272.  64.  1014.  0.  2018-12-22 11:30:27. 
311.  3.  324.  274.  61.  1014.  0.  2018-12-22 12:37:21. 
312.  3.  329.  283.  57.  1013.  0.  2018-12-22 13:44:16. 
313.  3.  340.  284.  56.  1013.  0.  2018-12-22 14:51:10. 
314.  3.  348.  290.  56.  1012.  0.  2018-12-22 15:58:05. 
315.  3.  336.  275.  55.  1013.  0.  2018-12-22 17:05:00. 
316.  3.  337.  285.  56.  1013.  0.  2018-12-22 18:11:54. 
317.  3.  344.  228.  60.  1013.  0.  2018-12-22 19:18:49. 
318.  3.  328.  221.  61.  1013.  0.  2018-12-22 20:25:43. 
319.  3.  326.  218.  62.  1015.  0.  2018-12-22 21:32:38. 
320.  3.  317.  214.  62.  1014.  0.  2018-12-22 22:39:32. 
321.  3.  322.  217.  64.  1013.  0.  2018-12-22 23:46:26. 
322.  3.  316.  213.  65.  1012.  0.  2018-12-23 00:53:21. 
323.  3.  311.  211.  65.  1012.  0.  2018-12-23 02:00:15. 
324.  3.  304.  210.  66.  1011.  0.  2018-12-23 03:07:10. 
325.  3.  313.  207.  66.  1011.  0.  2018-12-23 04:14:04. 
326.  3.  306.  207.  67.  1012.  0.  2018-12-23 05:20:58. 
327.  3.  304.  218.  67.  1012.  0.  2018-12-23 06:27:53. 
328.  3.  306.  225.  70.  1012.  0.  2018-12-23 07:34:47. 
329.  3.  314.  241.  70.  1012.  0.  2018-12-23 08:41:41. 
330.  3.  315.  250.  70.  1012.  0.  2018-12-23 09:48:36. 
331.  3.  319.  245.  66.  1013.  0.  2018-12-23 10:29:39. 
332.  3.  315.  240.  65.  1014.  0.  2018-12-23 11:36:34. 
333.  3.  324.  274.  64.  1012.  0.  2018-12-23 12:43:28. 
334.  3.  327.  267.  62.  1013.  0.  2018-12-23 13:50:22. 
335.  3.  333.  283.  60.  1013.  0.  2018-12-23 14:57:17. 
336.  3.  337.  313.  55.  1012.  0.  2018-12-23 16:04:11. 
337.  3.  341.  334.  53.  1012.  0.  2018-12-23 17:11:06. 
338.  3.  300.  281.  57.  1013.  0.  2018-12-23 18:18:01. 
339.  3.  282.  215.  71.  1013.  0.  2018-12-23 19:24:55. 
340.  3.  284.  204.  71.  1013.  0.  2018-12-23 20:31:49. 
341.  3.  291.  211.  70.  1013.  0.  2018-12-23 21:38:44. 
342.  3.  287.  207.  66.  1013.  0.  2018-12-23 22:45:38. 
343.  3.  300.  203.  62.  1013.  0.  2018-12-23 23:52:32. 
344.  3.  285.  205.  64.  1014.  0.  2018-12-24 00:59:26. 
345.  3.  267.  205.  73.  1013.  0.  2018-12-24 02:06:21. 
346.  3.  261.  204.  75.  1014.  0.  2018-12-24 03:13:15. 
347.  3.  270.  197.  75.  1014.  0.  2018-12-24 04:20:09. 
348.  3.  264.  199.  75.  1013.  0.  2018-12-24 05:27:03. 
349.  3.  263.  205.  75.  1013.  0.  2018-12-24 06:33:57. 
350.  3.  258.  219.  76.  1013.  0.  2018-12-24 07:40:51. 
351.  3.  263.  235.  76.  1014.  0.  2018-12-24 08:47:45. 
352.  3.  288.  243.  76.  1015.  0.  2018-12-24 09:54:39. 
353.  3.  270.  252.  74.  1014.  0.  2018-12-24 11:01:33. 
354.  3.  296.  275.  65.  1013.  0.  2018-12-24 12:08:28. 
355.  3.  291.  261.  64.  1012.  0.  2018-12-24 13:15:21. 
356.  3.  296.  271.  62.  1011.  0.  2018-12-24 14:22:15. 
357.  3.  302.  274.  62.  1012.  0.  2018-12-24 15:29:09. 
358.  3.  299.  298.  65.  1011.  0.  2018-12-24 16:36:03. 
359.  3.  303.  291.  65.  1011.  0.  2018-12-24 17:42:57. 
360.  3.  316.  237.  62.  1012.  0.  2018-12-24 18:49:52. 
361.  3.  315.  217.  61.  1013.  0.  2018-12-24 19:56:45. 
362.  3.  310.  213.  61.  1013.  0.  2018-12-24 21:03:40. 
363.  3.  304.  211.  61.  1013.  0.  2018-12-24 22:10:34. 
364.  3.  303.  201.  61.  1013.  0.  2018-12-24 23:17:28. 
365.  3.  296.  196.  61.  1012.  0.  2018-12-25 00:24:22. 
366.  3.  297.  189.  62.  1011.  0.  2018-12-25 01:31:16. 
367.  3.  295.  182.  62.  1011.  0.  2018-12-25 02:38:10. 
368.  3.  290.  173.  62.  1010.  0.  2018-12-25 03:45:05. 
369.  3.  290.  169.  62.  1011.  0.  2018-12-25 04:51:59. 
370.  3.  283.  166.  63.  1010.  0.  2018-12-25 05:58:53. 
371.  3.  280.  187.  63.  1012.  0.  2018-12-25 07:05:47. 
372.  3.  281.  218.  64.  1012.  0.  2018-12-25 08:12:41. 
373.  3.  290.  245.  61.  1012.  0.  2018-12-25 09:19:35. 
374.  3.  304.  262.  61.  1012.  0.  2018-12-25 10:26:29. 
375.  3.  331.  339.  60.  1010.  0.  2018-12-25 17:07:52. 
376.  3.  321.  290.  60.  1010.  0.  2018-12-25 18:14:47. 
377.  3.  320.  237.  61.  1011.  0.  2018-12-25 19:21:41. 
378.  3.  311.  231.  63.  1011.  0.  2018-12-25 20:28:35. 
379.  3.  316.  228.  64.  1012.  0.  2018-12-25 21:35:30. 
380.  3.  318.  222.  65.  1012.  0.  2018-12-25 22:42:24. 
381.  3.  316.  221.  65.  1012.  0.  2018-12-25 23:23:27. 
382.  3.  308.  218.  66.  1011.  0.  2018-12-26 00:30:22. 
383.  3.  306.  213.  70.  1010.  0.  2018-12-26 01:37:16. 
384.  3.  299.  211.  70.  1010.  0.  2018-12-26 02:44:10. 
385.  3.  300.  210.  71.  1010.  0.  2018-12-26 03:51:04. 
386.  3.  291.  206.  72.  1010.  0.  2018-12-26 04:57:59. 
387.  3.  287.  205.  72.  1010.  0.  2018-12-26 06:04:53. 
388.  3.  286.  212.  72.  1010.  0.  2018-12-26 07:11:47. 
389.  3.  297.  226.  72.  1011.  0.  2018-12-26 08:18:41. 
390.  3.  301.  220.  72.  1011.  0.  2018-12-26 09:25:35. 
391.  3.  291.  236.  70.  1011.  0.  2018-12-26 10:32:30. 
392.  3.  303.  256.  65.  1012.  0.  2018-12-26 11:39:24. 
393.  3.  314.  262.  64.  1012.  0.  2018-12-26 12:46:18. 
394.  3.  315.  270.  63.  1012.  0.  2018-12-26 13:53:13. 
395.  3.  319.  269.  63.  1012.  0.  2018-12-26 15:00:07. 
396.  3.  317.  305.  57.  1011.  0.  2018-12-26 16:07:01. 
397.  3.  323.  285.  57.  1011.  0.  2018-12-26 17:13:55. 
398.  3.  317.  252.  60.  1012.  0.  2018-12-26 18:20:50. 
399.  3.  306.  225.  63.  1012.  0.  2018-12-26 19:27:44. 
400.  3.  298.  218.  64.  1011.  0.  2018-12-26 20:34:38. 
401.  3.  296.  210.  67.  1013.  0.  2018-12-26 21:41:32. 
402.  3.  299.  205.  64.  1012.  0.  2018-12-26 22:48:26. 
403.  3.  308.  199.  64.  1012.  0.  2018-12-26 23:55:21. 
404.  3.  297.  202.  65.  1011.  0.  2018-12-27 01:02:15. 
405.  3.  301.  181.  65.  1012.  0.  2018-12-27 02:09:09. 
406.  3.  295.  185.  65.  1012.  0.  2018-12-27 03:16:03. 
407.  3.  284.  184.  65.  1012.  0.  2018-12-27 04:22:57. 
408.  3.  280.  176.  65.  1013.  0.  2018-12-27 05:29:52. 
409.  3.  285.  190.  64.  1014.  0.  2018-12-27 06:36:46. 
410.  3.  285.  199.  61.  1015.  0.  2018-12-27 07:43:40. 
411.  3.  281.  217.  57.  1016.  0.  2018-12-27 08:50:35. 
412.  3.  295.  226.  57.  1016.  0.  2018-12-27 09:57:29. 
413.  3.  303.  232.  54.  1016.  0.  2018-12-27 11:04:23. 
414.  3.  306.  221.  52.  1017.  0.  2018-12-27 12:11:17. 
415.  3.  303.  258.  51.  1017.  0.  2018-12-27 13:18:11. 
416.  3.  318.  252.  50.  1018.  0.  2018-12-27 14:25:06. 
417.  3.  309.  246.  47.  1018.  0.  2018-12-27 15:32:00. 
418.  3.  314.  271.  46.  1018.  0.  2018-12-27 16:38:54. 
419.  3.  311.  211.  45.  1018.  0.  2018-12-27 17:45:49. 
420.  3.  302.  197.  45.  1021.  0.  2018-12-27 18:52:43. 
421.  3.  295.  195.  46.  1021.  0.  2018-12-27 19:59:37. 
422.  3.  294.  189.  47.  1022.  0.  2018-12-27 21:06:31. 
423.  3.  282.  183.  50.  1023.  0.  2018-12-27 22:13:26. 
424.  3.  284.  180.  51.  1022.  0.  2018-12-27 23:20:20. 
425.  3.  278.  180.  52.  1022.  0.  2018-12-28 00:27:14. 
426.  3.  281.  183.  52.  1021.  0.  2018-12-28 01:34:09. 
427.  3.  268.  172.  52.  1021.  0.  2018-12-28 02:41:03. 
428.  3.  273.  172.  52.  1020.  0.  2018-12-28 03:47:57. 
429.  3.  269.  170.  52.  1020.  0.  2018-12-28 04:54:52. 
430.  3.  264.  168.  53.  1021.  0.  2018-12-28 06:01:47. 
431.  3.  264.  181.  53.  1020.  0.  2018-12-28 07:08:41. 
432.  3.  265.  196.  50.  1019.  0.  2018-12-28 08:15:35. 
433.  3.  273.  225.  50.  1020.  0.  2018-12-28 09:22:29. 
434.  3.  274.  235.  50.  1020.  0.  2018-12-28 10:29:24. 
435.  3.  289.  251.  47.  1020.  0.  2018-12-28 11:36:18. 
436.  3.  303.  250.  50.  1019.  0.  2018-12-28 12:17:21. 
437.  3.  306.  248.  51.  1019.  0.  2018-12-28 13:24:16. 
438.  3.  307.  245.  51.  1018.  0.  2018-12-28 14:31:10. 
439.  3.  317.  240.  50.  1017.  0.  2018-12-28 15:38:05. 
440.  3.  312.  278.  47.  1017.  0.  2018-12-28 16:44:59. 
441.  3.  317.  284.  52.  1015.  0.  2018-12-28 17:51:53. 
442.  3.  306.  211.  55.  1015.  0.  2018-12-28 18:58:48. 
443.  3.  299.  204.  56.  1015.  0.  2018-12-28 20:05:42. 
444.  3.  299.  202.  57.  1014.  0.  2018-12-28 21:12:36. 
445.  3.  292.  195.  60.  1014.  0.  2018-12-28 22:19:30. 
446.  3.  281.  188.  61.  1014.  0.  2018-12-28 23:26:25. 
447.  3.  279.  189.  61.  1013.  0.  2018-12-29 00:33:19. 
448.  3.  269.  169.  62.  1011.  0.  2018-12-29 01:40:13. 
449.  3.  265.  158.  63.  1011.  0.  2018-12-29 02:47:07. 
450.  3.  263.  154.  63.  1011.  0.  2018-12-29 03:54:01. 
451.  3.  257.  146.  63.  1012.  0.  2018-12-29 05:00:55. 
452.  3.  261.  141.  63.  1012.  0.  2018-12-29 06:07:49. 
453.  3.  252.  180.  64.  1013.  0.  2018-12-29 07:14:43. 
454.  3.  257.  211.  64.  1013.  0.  2018-12-29 08:21:37. 
455.  3.  265.  226.  63.  1013.  0.  2018-12-29 09:28:31. 
456.  3.  286.  236.  62.  1013.  0.  2018-12-29 10:35:25. 
457.  3.  297.  248.  61.  1014.  0.  2018-12-29 11:42:19. 
458.  3.  304.  254.  61.  1013.  0.  2018-12-29 12:49:14. 
459.  3.  315.  260.  60.  1014.  0.  2018-12-29 13:56:08. 
460.  3.  314.  256.  55.  1013.  0.  2018-12-29 15:03:02. 
461.  3.  311.  268.  46.  1014.  0.  2018-12-29 15:58:08. 
462.  3.  311.  283.  44.  1013.  0.  2018-12-29 17:05:00. 
463.  3.  287.  258.  35.  1015.  0.  2018-12-29 18:11:55. 
464.  3.  295.  208.  37.  1015.  0.  2018-12-29 19:18:49. 
465.  3.  285.  200.  36.  1015.  0.  2018-12-29 20:25:44. 
466.  3.  235.  193.  43.  1017.  0.  2018-12-30 07:12:54. 
467.  3.  235.  209.  65.  1016.  0.  2018-12-30 08:19:45. 
468.  3.  244.  224.  63.  1016.  0.  2018-12-30 09:26:39. 
469.  3.  250.  241.  61.  1017.  0.  2018-12-30 10:33:34. 
470.  3.  274.  243.  60.  1018.  0.  2018-12-30 11:40:28. 
471.  3.  281.  253.  57.  1017.  0.  2018-12-30 12:47:22. 
472.  3.  279.  255.  56.  1016.  0.  2018-12-30 13:54:17. 
473.  3.  284.  263.  54.  1017.  0.  2018-12-30 15:01:11. 
474.  3.  293.  284.  55.  1015.  0.  2018-12-30 16:08:05. 
475.  3.  282.  250.  56.  1016.  0.  2018-12-30 17:15:00. 
476.  3.  278.  252.  60.  1014.  0.  2018-12-30 18:21:54. 
477.  3.  263.  203.  62.  1015.  0.  2018-12-30 19:28:49. 
478.  3.  265.  199.  63.  1015.  0.  2018-12-30 20:35:43. 
479.  3.  256.  199.  65.  1016.  0.  2018-12-30 21:42:37. 
480.  3.  260.  198.  67.  1016.  0.  2018-12-30 22:49:32. 
481.  3.  252.  196.  67.  1015.  0.  2018-12-30 23:56:26. 
482.  3.  246.  193.  67.  1014.  0.  2018-12-31 01:03:21. 
483.  3.  245.  189.  67.  1013.  0.  2018-12-31 02:10:15. 
484.  3.  251.  181.  67.  1012.  0.  2018-12-31 03:17:09. 
485.  3.  235.  173.  67.  1012.  0.  2018-12-31 04:24:04. 
486.  3.  233.  159.  67.  1013.  0.  2018-12-31 05:30:58. 
487.  3.  232.  171.  66.  1013.  0.  2018-12-31 06:37:52. 
488.  3.  236.  208.  70.  1014.  0.  2018-12-31 07:44:47. 
489.  3.  254.  239.  64.  1013.  0.  2018-12-31 08:51:42. 
490.  3.  275.  277.  61.  1013.  0.  2018-12-31 09:58:37. 
491.  3.  281.  280.  60.  1013.  0.  2018-12-31 11:05:32. 
492.  3.  293.  286.  60.  1012.  0.  2018-12-31 12:12:26. 
493.  3.  306.  299.  56.  1012.  0.  2018-12-31 13:19:20. 
494.  3.  306.  300.  55.  1012.  0.  2018-12-31 14:26:15. 
495.  3.  307.  294.  55.  1012.  0.  2018-12-31 15:33:10. 
496.  3.  309.  334.  55.  1012.  0.  2018-12-31 16:40:05. 
497.  3.  306.  339.  52.  1012.  0.  2018-12-31 17:46:59. 
498.  3.  289.  231.  57.  1012.  0.  2018-12-31 18:53:53. 
499.  3.  274.  211.  62.  1014.  0.  2018-12-31 20:00:47. 
500.  3.  284.  204.  63.  1015.  0.  2018-12-31 21:12:42. 
501.  3.  281.  204.  64.  1015.  0.  2018-12-31 22:19:37. 
502.  3.  274.  200.  63.  1016.  0.  2018-12-31 23:26:31. 
503.  3.  261.  194.  64.  1014.  0.  2019-01-01 00:33:25. 
504.  3.  258.  195.  64.  1014.  0.  2019-01-01 01:40:19. 
505.  3.  255.  188.  64.  1014.  0.  2019-01-01 02:47:13. 
506.  3.  250.  186.  64.  1014.  0.  2019-01-01 03:54:07. 
507.  3.  253.  175.  64.  1015.  0.  2019-01-01 05:01:02. 
508.  3.  249.  179.  65.  1016.  0.  2019-01-01 06:07:56. 
509.  3.  243.  187.  64.  1016.  0.  2019-01-01 07:14:51. 
510.  3.  242.  212.  61.  1017.  0.  2019-01-01 08:21:45. 
511.  3.  256.  227.  61.  1018.  0.  2019-01-01 09:28:39. 
512.  3.  275.  246.  55.  1018.  0.  2019-01-01 10:35:33. 
513.  3.  264.  259.  52.  1017.  0.  2019-01-01 11:42:28. 
514.  3.  281.  269.  47.  1018.  0.  2019-01-01 12:49:22. 
515.  3.  299.  285.  47.  1016.  0.  2019-01-01 13:56:17. 
516.  3.  298.  262.  47.  1017.  0.  2019-01-01 15:03:12. 
517.  3.  289.  263.  50.  1017.  0.  2019-01-01 16:10:06. 
518.  3.  286.  271.  50.  1016.  0.  2019-01-01 17:17:01. 
519.  3.  279.  225.  53.  1017.  0.  2019-01-01 18:23:56. 
520.  3.  257.  196.  60.  1019.  0.  2019-01-01 19:30:50. 
521.  3.  246.  180.  62.  1020.  0.  2019-01-01 20:37:44. 
522.  3.  259.  189.  53.  1021.  0.  2019-01-01 21:44:38. 
523.  3.  248.  182.  50.  1021.  0.  2019-01-01 23:37:38. 
524.  3.  241.  182.  47.  1022.  0.  2019-01-02 00:44:32. 
525.  3.  235.  183.  47.  1021.  0.  2019-01-02 01:51:26. 
526.  3.  239.  180.  50.  1021.  0.  2019-01-02 02:58:20. 
527.  3.  244.  182.  50.  1020.  0.  2019-01-02 04:05:15. 
528.  3.  235.  179.  50.  1021.  0.  2019-01-02 05:12:09. 
529.  3.  227.  180.  50.  1021.  0.  2019-01-02 06:19:03. 
530.  3.  231.  187.  50.  1021.  0.  2019-01-02 07:25:58. 
531.  3.  241.  196.  47.  1022.  0.  2019-01-02 08:32:52. 
532.  3.  238.  218.  47.  1021.  0.  2019-01-02 09:39:46. 
533.  3.  248.  237.  46.  1021.  0.  2019-01-02 10:46:40. 
534.  3.  254.  246.  47.  1020.  0.  2019-01-02 11:53:34. 
535.  3.  268.  232.  47.  1021.  0.  2019-01-02 13:00:29. 
536.  3.  262.  245.  47.  1020.  0.  2019-01-02 14:07:23. 
537.  3.  273.  255.  46.  1018.  0.  2019-01-02 15:14:18. 
538.  3.  281.  282.  44.  1017.  0.  2019-01-02 16:21:12. 
539.  3.  284.  292.  43.  1017.  0.  2019-01-02 17:28:06. 
540.  3.  264.  240.  44.  1017.  0.  2019-01-02 18:35:01. 
541.  3.  265.  202.  45.  1017.  0.  2019-01-02 19:41:55. 
542.  3.  259.  196.  45.  1020.  0.  2019-01-02 20:48:49. 
543.  3.  261.  193.  45.  1019.  0.  2019-01-02 21:55:44. 
544.  3.  254.  187.  46.  1018.  0.  2019-01-02 23:02:38. 
545.  3.  240.  186.  47.  1017.  0.  2019-01-03 00:09:32. 
546.  3.  239.  186.  47.  1016.  0.  2019-01-03 01:16:27. 
547.  3.  236.  182.  50.  1015.  0.  2019-01-03 02:23:21. 
548.  3.  240.  183.  51.  1014.  0.  2019-01-03 03:30:15. 
549.  3.  234.  187.  52.  1015.  0.  2019-01-03 04:37:09. 
550.  3.  237.  181.  52.  1014.  0.  2019-01-03 05:44:03. 
551.  3.  230.  188.  53.  1014.  0.  2019-01-03 06:50:58. 
552.  3.  246.  211.  53.  1015.  0.  2019-01-03 07:57:52. 
553.  3.  252.  237.  52.  1016.  0.  2019-01-03 09:04:46. 
554.  3.  264.  253.  50.  1015.  0.  2019-01-03 10:11:40. 
555.  3.  275.  269.  46.  1014.  0.  2019-01-03 11:18:35. 
556.  3.  284.  272.  46.  1014.  0.  2019-01-03 12:25:29. 
557.  3.  283.  260.  47.  1014.  0.  2019-01-03 13:32:24. 
558.  3.  295.  247.  47.  1014.  0.  2019-01-03 14:39:19. 
559.  3.  298.  249.  46.  1013.  0.  2019-01-03 15:46:13. 
560.  3.  290.  280.  46.  1013.  0.  2019-01-03 16:53:08. 
561.  3.  297.  243.  63.  1014.  0.  2019-01-04 11:42:30. 
562.  3.  307.  241.  61.  1014.  0.  2019-01-04 12:32:40. 
563.  3.  306.  224.  56.  1013.  0.  2019-01-04 13:22:54. 
564.  3.  311.  231.  56.  1014.  0.  2019-01-04 13:28:53. 
565.  3.  322.  235.  57.  1014.  0.  2019-01-04 13:31:48. 
566.  3.  319.  236.  57.  1014.  0.  2019-01-04 13:32:48. 
567.  3.  319.  221.  53.  1014.  0.  2019-01-04 14:22:57. 
568.  3.  328.  217.  50.  1014.  0.  2019-01-04 15:13:12. 
569.  3.  294.  216.  52.  1014.  0.  2019-01-04 15:47:00. 
570.  3.  275.  174.  60.  1014.  0.  2019-01-04 16:37:09. 
571.  3.  273.  196.  63.  1014.  0.  2019-01-04 17:27:24. 
572.  3.  258.  261.  70.  1014.  0.  2019-01-04 18:17:39. 
573.  3.  253.  275.  71.  1015.  0.  2019-01-04 19:07:54. 
574.  3.  243.  281.  72.  1017.  0.  2019-01-04 19:58:08. 
575.  3.  259.  284.  67.  1016.  0.  2019-01-04 20:48:24. 
576.  3.  284.  287.  70.  1016.  0.  2019-01-04 21:08:32. 
577.  3.  294.  289.  70.  1016.  0.  2019-01-04 21:12:37. 
578.  3.  299.  289.  70.  1017.  0.  2019-01-04 21:19:26. 
579.  3.  306.  292.  70.  1017.  0.  2019-01-04 21:36:56. 
580.  3.  298.  294.  71.  1016.  0.  2019-01-04 21:39:38. 
581.  3.  301.  293.  72.  1016.  0.  2019-01-04 21:40:17. 
582.  3.  274.  298.  71.  1017.  0.  2019-01-04 22:30:28. 
583.  3.  272.  301.  67.  1017.  0.  2019-01-04 23:20:44. 
584.  3.  268.  306.  66.  1018.  0.  2019-01-05 00:11:00. 
585.  3.  267.  305.  66.  1017.  0.  2019-01-05 01:01:16. 
586.  3.  264.  306.  65.  1017.  0.  2019-01-05 01:51:32. 
587.  3.  253.  309.  65.  1016.  0.  2019-01-05 02:41:48. 
588.  3.  255.  314.  64.  1017.  0.  2019-01-05 03:32:04. 
589.  3.  253.  317.  65.  1017.  0.  2019-01-05 04:22:20. 
590.  3.  248.  315.  65.  1017.  0.  2019-01-05 05:12:36. 
591.  3.  248.  324.  65.  1018.  0.  2019-01-05 06:02:52. 
592.  3.  242.  313.  65.  1018.  0.  2019-01-05 06:53:07. 
593.  3.  247.  305.  71.  1019.  0.  2019-01-05 07:43:23. 
594.  3.  244.  288.  71.  1018.  0.  2019-01-05 08:33:39. 
595.  3.  247.  275.  71.  1019.  0.  2019-01-05 09:23:55. 
596.  3.  248.  272.  64.  1019.  0.  2019-01-05 10:14:11. 
597.  3.  252.  271.  65.  1019.  0.  2019-01-05 11:04:27. 
598.  3.  260.  270.  63.  1018.  0.  2019-01-05 11:54:42. 
599.  3.  276.  253.  62.  1018.  0.  2019-01-05 12:44:59. 
600.  3.  276.  259.  61.  1018.  0.  2019-01-05 13:35:15. 
601.  3.  273.  253.  60.  1017.  0.  2019-01-05 14:25:31. 
602.  3.  281.  253.  60.  1018.  0.  2019-01-05 15:15:47. 
603.  3.  281.  253.  60.  1017.  0.  2019-01-05 16:06:02. 
604.  3.  285.  238.  61.  1017.  0.  2019-01-05 16:56:18. 
605.  3.  277.  224.  63.  1017.  0.  2019-01-05 17:46:34. 
606.  3.  267.  256.  64.  1017.  0.  2019-01-05 18:36:50. 
607.  3.  262.  296.  64.  1017.  0.  2019-01-05 19:27:06. 
608.  3.  253.  306.  65.  1018.  0.  2019-01-05 20:17:22. 
609.  3.  255.  308.  67.  1018.  0.  2019-01-05 21:07:38. 
610.  3.  251.  311.  67.  1018.  0.  2019-01-05 21:57:54. 
611.  3.  256.  312.  70.  1018.  0.  2019-01-05 22:48:10. 
612.  3.  251.  317.  71.  1018.  0.  2019-01-05 23:38:25. 
613.  3.  252.  320.  71.  1018.  0.  2019-01-06 00:28:41. 
614.  3.  241.  321.  71.  1018.  0.  2019-01-06 01:18:57. 
615.  3.  241.  323.  71.  1018.  0.  2019-01-06 02:09:13. 
616.  3.  240.  324.  72.  1016.  0.  2019-01-06 02:59:29. 
617.  3.  237.  325.  71.  1017.  0.  2019-01-06 03:49:44. 
618.  3.  235.  327.  71.  1017.  0.  2019-01-06 04:40:00. 
619.  3.  238.  325.  72.  1017.  0.  2019-01-06 05:30:16. 
620.  3.  231.  325.  72.  1017.  0.  2019-01-06 06:20:32. 
621.  3.  234.  317.  72.  1017.  0.  2019-01-06 07:10:47. 
622.  3.  231.  307.  71.  1016.  0.  2019-01-06 08:01:03. 
623.  3.  238.  296.  70.  1016.  0.  2019-01-06 08:51:19. 
624.  3.  240.  286.  67.  1017.  0.  2019-01-06 09:41:35. 
625.  3.  242.  277.  65.  1016.  0.  2019-01-06 10:31:51. 
626.  3.  251.  267.  65.  1016.  0.  2019-01-06 11:22:07. 
627.  3.  257.  272.  64.  1016.  0.  2019-01-06 12:12:23. 
628.  3.  262.  256.  64.  1015.  0.  2019-01-06 13:02:39. 
629.  3.  265.  260.  65.  1015.  0.  2019-01-06 13:52:55. 
630.  3.  268.  259.  64.  1013.  0.  2019-01-06 14:43:11. 
631.  3.  275.  252.  63.  1014.  0.  2019-01-06 15:33:27. 
632.  3.  272.  213.  63.  1014.  0.  2019-01-06 16:23:43. 
633.  3.  269.  249.  63.  1014.  0.  2019-01-06 17:13:59. 
634.  3.  279.  239.  64.  1013.  0.  2019-01-06 18:04:15. 
635.  3.  278.  291.  65.  1014.  0.  2019-01-06 18:54:31. 
636.  3.  278.  301.  66.  1014.  0.  2019-01-06 19:25:23. 
637.  3.  276.  307.  70.  1014.  0.  2019-01-06 20:15:39. 
638.  3.  269.  308.  71.  1014.  0.  2019-01-06 21:05:55. 
639.  3.  272.  313.  72.  1013.  0.  2019-01-06 21:56:11. 
640.  3.  264.  315.  71.  1013.  0.  2019-01-06 22:46:27. 
641.  3.  247.  319.  72.  1013.  0.  2019-01-06 23:36:43. 
642.  3.  246.  319.  72.  1012.  0.  2019-01-07 00:26:59. 
643.  3.  240.  321.  72.  1012.  0.  2019-01-07 01:17:14. 
644.  3.  238.  322.  72.  1011.  0.  2019-01-07 02:07:31. 
645.  3.  234.  324.  72.  1010.  0.  2019-01-07 02:57:47. 
646.  3.  238.  335.  72.  1009.  0.  2019-01-07 03:48:02. 
647.  3.  229.  346.  73.  1009.  0.  2019-01-07 04:38:18. 
648.  3.  229.  328.  74.  1010.  0.  2019-01-07 05:28:35. 
649.  3.  230.  325.  74.  1011.  0.  2019-01-07 06:18:51. 
650.  3.  229.  319.  73.  1011.  0.  2019-01-07 07:09:06. 
651.  3.  225.  309.  73.  1011.  0.  2019-01-07 07:59:23. 
652.  3.  240.  286.  74.  1012.  0.  2019-01-07 08:49:38. 
653.  3.  275.  285.  75.  1011.  0.  2019-01-07 10:00:35. 
654.  3.  253.  280.  71.  1011.  0.  2019-01-07 10:13:27. 
655.  3.  251.  285.  71.  1012.  0.  2019-01-07 10:20:27. 
656.  3.  251.  284.  71.  1011.  0.  2019-01-07 10:21:19. 
657.  3.  254.  280.  71.  1011.  0.  2019-01-07 10:23:59. 
658.  3.  249.  278.  61.  1011.  0.  2019-01-07 10:42:11. 
659.  3.  249.  273.  67.  1012.  41.  2019-01-07 11:32:22. 
660.  3.  255.  256.  67.  1012.  41.  2019-01-07 12:22:39. 
661.  3.  253.  265.  67.  1011.  41.  2019-01-07 13:12:56. 
662.  3.  253.  256.  65.  1011.  41.  2019-01-07 14:03:13. 
663.  3.  267.  251.  64.  1011.  41.  2019-01-07 14:53:29. 
664.  3.  268.  267.  62.  1010.  41.  2019-01-07 15:43:46. 
665.  3.  272.  219.  62.  1010.  41.  2019-01-07 16:34:03. 
666.  3.  277.  222.  62.  1011.  0.  2019-01-07 16:35:18. 
667.  3.  269.  223.  61.  1010.  0.  2019-01-07 17:25:28. 
668.  3.  266.  254.  61.  1011.  0.  2019-01-07 18:15:44. 
669.  3.  267.  294.  62.  1011.  0.  2019-01-07 19:06:01. 
670.  3.  260.  305.  63.  1011.  0.  2019-01-07 19:56:17. 
671.  3.  261.  306.  63.  1011.  0.  2019-01-07 20:46:33. 
672.  3.  259.  307.  63.  1012.  0.  2019-01-07 21:36:50. 
673.  3.  255.  309.  63.  1011.  0.  2019-01-07 22:27:06. 
674.  3.  256.  309.  63.  1011.  0.  2019-01-07 23:17:22. 
675.  3.  252.  311.  63.  1011.  0.  2019-01-08 00:07:38. 
676.  3.  254.  315.  64.  1012.  0.  2019-01-08 00:57:54. 
677.  3.  248.  314.  64.  1011.  0.  2019-01-08 01:48:10. 
678.  3.  248.  313.  64.  1011.  0.  2019-01-08 02:38:26. 
679.  3.  247.  312.  64.  1010.  0.  2019-01-08 03:28:42. 
680.  3.  246.  316.  63.  1010.  0.  2019-01-08 04:18:58. 
681.  3.  247.  324.  64.  1011.  0.  2019-01-08 05:09:14. 
682.  3.  249.  326.  64.  1011.  0.  2019-01-08 05:59:30. 
683.  3.  246.  321.  64.  1012.  0.  2019-01-08 06:49:46. 
684.  3.  243.  306.  65.  1012.  0.  2019-01-08 07:40:02. 
685.  3.  246.  292.  65.  1011.  0.  2019-01-08 08:30:18. 
686.  3.  245.  279.  64.  1011.  0.  2019-01-08 09:20:35. 
687.  3.  252.  269.  64.  1011.  0.  2019-01-08 10:10:50. 
688.  3.  253.  257.  63.  1013.  0.  2019-01-08 11:01:06. 
689.  3.  256.  248.  63.  1011.  0.  2019-01-08 11:51:22. 
690.  3.  257.  246.  63.  1012.  0.  2019-01-08 12:41:38. 
691.  3.  267.  247.  62.  1012.  0.  2019-01-08 13:31:54. 
692.  3.  271.  242.  63.  1012.  0.  2019-01-08 14:22:11. 
693.  3.  272.  239.  65.  1010.  0.  2019-01-08 15:12:26. 
694.  3.  272.  264.  65.  1011.  0.  2019-01-08 16:02:42. 
695.  3.  270.  275.  70.  1011.  0.  2019-01-08 16:52:58. 
696.  3.  272.  283.  72.  1011.  0.  2019-01-08 17:43:14. 
697.  3.  265.  294.  72.  1012.  0.  2019-01-08 18:33:30. 
698.  3.  263.  299.  72.  1011.  0.  2019-01-08 19:23:47. 
699.  3.  255.  303.  71.  1012.  0.  2019-01-08 20:14:03. 
700.  3.  257.  307.  70.  1012.  0.  2019-01-08 21:04:19. 
701.  3.  258.  314.  67.  1012.  0.  2019-01-08 21:54:35. 
702.  3.  252.  319.  70.  1012.  0.  2019-01-08 22:44:51. 
703.  3.  258.  319.  67.  1011.  0.  2019-01-08 23:35:07. 
704.  3.  253.  320.  67.  1011.  0.  2019-01-09 00:25:23. 
705.  3.  250.  320.  67.  1011.  0.  2019-01-09 01:15:39. 
706.  3.  250.  320.  70.  1011.  0.  2019-01-09 02:05:56. 
707.  3.  246.  318.  70.  1010.  0.  2019-01-09 02:56:12. 
708.  3.  249.  319.  70.  1010.  0.  2019-01-09 03:46:28. 
709.  3.  248.  321.  67.  1009.  0.  2019-01-09 04:36:44. 
710.  3.  250.  322.  67.  1009.  0.  2019-01-09 05:27:00. 
711.  3.  246.  322.  70.  1010.  0.  2019-01-09 06:17:16. 
712.  3.  240.  315.  70.  1009.  0.  2019-01-09 07:07:32. 
713.  3.  248.  307.  71.  1010.  0.  2019-01-09 07:57:48. 
714.  3.  252.  291.  74.  1010.  0.  2019-01-09 08:48:04. 
715.  3.  247.  278.  73.  1010.  0.  2019-01-09 09:38:21. 
716.  3.  248.  270.  72.  1010.  0.  2019-01-09 10:28:35. 
717.  3.  255.  266.  71.  1010.  0.  2019-01-09 11:18:51. 
718.  3.  256.  264.  70.  1010.  0.  2019-01-09 12:09:07. 
719.  3.  269.  250.  67.  1009.  0.  2019-01-09 12:59:24. 
720.  3.  276.  244.  65.  1010.  0.  2019-01-09 14:20:31. 
721.  3.  274.  250.  64.  1010.  0.  2019-01-09 15:10:47. 
722.  3.  270.  255.  63.  1009.  0.  2019-01-09 16:01:03. 
723.  3.  272.  274.  63.  1010.  0.  2019-01-09 16:51:18. 
724.  3.  266.  259.  61.  1010.  0.  2019-01-09 17:41:34. 
725.  3.  270.  256.  61.  1011.  0.  2019-01-09 18:31:50. 
726.  3.  270.  293.  56.  1010.  0.  2019-01-09 19:22:06. 
727.  3.  264.  305.  61.  1010.  0.  2019-01-09 20:12:21. 
728.  3.  264.  310.  62.  1012.  0.  2019-01-09 21:02:38. 
729.  3.  269.  313.  60.  1012.  0.  2019-01-09 21:52:54. 
730.  3.  261.  319.  61.  1011.  0.  2019-01-09 22:43:10. 
731.  3.  257.  324.  62.  1012.  0.  2019-01-09 23:33:26. 
732.  3.  254.  338.  62.  1012.  0.  2019-01-10 00:23:41. 
733.  3.  250.  336.  62.  1012.  0.  2019-01-10 01:13:58. 
734.  3.  253.  343.  62.  1010.  0.  2019-01-10 02:04:14. 
735.  3.  247.  325.  62.  1011.  0.  2019-01-10 02:54:29. 
736.  3.  256.  332.  63.  1010.  0.  2019-01-10 03:44:45. 
737.  3.  247.  334.  63.  1010.  0.  2019-01-10 04:35:01. 
738.  3.  247.  335.  63.  1010.  0.  2019-01-10 05:25:17. 
739.  3.  242.  341.  63.  1011.  0.  2019-01-10 06:15:33. 
740.  3.  242.  315.  64.  1012.  0.  2019-01-10 07:05:49. 
741.  3.  246.  302.  64.  1012.  0.  2019-01-10 07:56:05. 
742.  3.  245.  294.  63.  1011.  0.  2019-01-10 08:46:21. 
743.  3.  246.  279.  62.  1010.  0.  2019-01-10 09:36:37. 
744.  3.  247.  284.  62.  1011.  0.  2019-01-10 10:26:53. 
745.  3.  255.  254.  62.  1012.  0.  2019-01-10 11:17:09. 
746.  3.  251.  256.  62.  1012.  0.  2019-01-10 12:07:25. 
747.  3.  258.  271.  62.  1011.  0.  2019-01-10 12:57:41. 
748.  3.  252.  278.  63.  1011.  0.  2019-01-10 13:47:57. 
749.  3.  255.  274.  63.  1011.  0.  2019-01-10 14:38:13. 
750.  3.  251.  263.  62.  1011.  0.  2019-01-10 15:28:29. 
751.  3.  256.  258.  61.  1010.  0.  2019-01-10 16:18:45. 
752.  3.  262.  203.  61.  1012.  0.  2019-01-10 17:09:01. 
753.  3.  259.  275.  62.  1011.  0.  2019-01-10 17:59:18. 
754.  3.  256.  288.  64.  1012.  0.  2019-01-10 18:49:34. 
755.  3.  256.  297.  64.  1012.  0.  2019-01-10 19:39:50. 
756.  3.  257.  301.  65.  1012.  0.  2019-01-10 20:30:06. 
757.  3.  252.  306.  65.  1011.  0.  2019-01-10 21:20:23. 
758.  3.  255.  310.  65.  1011.  0.  2019-01-10 22:10:39. 
759.  3.  255.  316.  65.  1011.  0.  2019-01-10 23:00:55. 
760.  3.  256.  317.  65.  1012.  0.  2019-01-10 23:51:11. 
761.  3.  251.  320.  65.  1010.  0.  2019-01-11 00:41:27. 
762.  3.  247.  329.  65.  1010.  0.  2019-01-11 01:31:43. 
763.  3.  246.  337.  66.  1008.  0.  2019-01-11 02:22:00. 
764.  3.  243.  333.  66.  1008.  0.  2019-01-11 03:12:14. 
765.  3.  247.  336.  66.  1008.  0.  2019-01-11 04:02:32. 
766.  3.  243.  335.  67.  1007.  0.  2019-01-11 04:52:45. 
767.  3.  245.  331.  67.  1007.  0.  2019-01-11 05:43:00. 
768.  3.  240.  323.  67.  1007.  0.  2019-01-11 06:33:16. 
769.  3.  241.  304.  67.  1007.  0.  2019-01-11 07:23:32. 
770.  3.  241.  294.  65.  1007.  0.  2019-01-11 08:13:48. 
771.  3.  244.  299.  65.  1007.  0.  2019-01-11 09:04:04. 
772.  3.  246.  292.  64.  1007.  0.  2019-01-11 09:54:20. 
773.  3.  245.  282.  63.  1007.  0.  2019-01-11 10:44:37. 
774.  3.  244.  281.  63.  1007.  0.  2019-01-11 11:34:53. 
775.  3.  244.  276.  62.  1006.  0.  2019-01-11 12:05:45. 
776.  3.  249.  252.  62.  1005.  0.  2019-01-11 12:56:01. 
777.  3.  252.  239.  60.  1004.  0.  2019-01-11 13:46:17. 
778.  3.  259.  249.  60.  1005.  0.  2019-01-11 14:36:33. 
779.  3.  261.  262.  61.  1004.  0.  2019-01-11 15:26:49. 
780.  3.  259.  291.  63.  1005.  0.  2019-01-11 16:17:06. 
781.  3.  258.  314.  67.  1004.  1.  2019-01-11 17:07:22. 
782.  3.  257.  324.  74.  1004.  4.  2019-01-11 17:57:38. 
783.  3.  253.  326.  75.  1005.  8.  2019-01-11 18:47:55. 
784.  3.  250.  350.  72.  1009.  10.  2019-01-11 19:38:12. 
785.  3.  252.  358.  70.  1009.  11.  2019-01-11 20:28:29. 
786.  3.  250.  349.  67.  1010.  11.  2019-01-11 21:18:45. 
787.  3.  244.  349.  67.  1010.  11.  2019-01-11 22:09:02. 
788.  3.  249.  357.  70.  1011.  11.  2019-01-11 22:59:19. 
789.  3.  245.  361.  70.  1010.  11.  2019-01-11 23:49:36. 
790.  3.  243.  372.  70.  1011.  11.  2019-01-12 00:39:53. 
791.  3.  234.  379.  70.  1011.  11.  2019-01-12 01:30:10. 
792.  3.  237.  383.  70.  1010.  11.  2019-01-12 02:20:27. 
793.  3.  232.  387.  67.  1009.  11.  2019-01-12 03:10:44. 
794.  3.  230.  396.  67.  1009.  11.  2019-01-12 04:01:01. 
795.  3.  226.  399.  67.  1009.  11.  2019-01-12 04:51:17. 
796.  3.  221.  402.  67.  1009.  11.  2019-01-12 05:41:34. 
797.  3.  219.  398.  67.  1010.  11.  2019-01-12 06:31:51. 
798.  3.  219.  374.  66.  1011.  11.  2019-01-12 07:22:08. 
799.  3.  220.  344.  70.  1011.  11.  2019-01-12 08:12:25. 
800.  3.  224.  338.  60.  1011.  11.  2019-01-12 09:02:41. 
801.  3.  218.  320.  57.  1010.  11.  2019-01-12 09:52:58. 
802.  3.  222.  295.  56.  1011.  11.  2019-01-12 10:43:15. 
803.  3.  229.  287.  55.  1011.  11.  2019-01-12 11:33:32. 
804.  3.  233.  283.  54.  1011.  11.  2019-01-12 12:23:49. 
805.  3.  239.  266.  53.  1010.  11.  2019-01-12 13:14:06. 
806.  3.  241.  254.  55.  1009.  11.  2019-01-12 14:04:23. 
807.  3.  245.  254.  55.  1009.  11.  2019-01-12 14:54:40. 
808.  3.  248.  240.  54.  1009.  11.  2019-01-12 15:44:57. 
809.  3.  251.  178.  55.  1010.  11.  2019-01-12 16:35:14. 
810.  3.  250.  217.  55.  1009.  11.  2019-01-12 17:25:32. 
811.  3.  250.  217.  56.  1008.  11.  2019-01-12 18:15:49. 
812.  3.  245.  288.  56.  1008.  11.  2019-01-12 19:06:06. 
813.  3.  241.  307.  57.  1009.  11.  2019-01-12 19:56:23. 
814.  3.  245.  311.  60.  1008.  11.  2019-01-12 20:46:40. 
815.  3.  244.  310.  60.  1009.  11.  2019-01-12 21:36:57. 
816.  3.  243.  311.  60.  1010.  11.  2019-01-12 22:27:14. 
817.  3.  242.  312.  62.  1010.  11.  2019-01-12 23:17:30. 
818.  3.  246.  314.  63.  1010.  11.  2019-01-13 00:07:47. 
819.  3.  242.  313.  63.  1010.  11.  2019-01-13 00:58:04. 
820.  3.  240.  314.  63.  1011.  11.  2019-01-13 01:48:21. 
821.  3.  239.  316.  64.  1010.  11.  2019-01-13 02:38:38. 
822.  3.  240.  320.  64.  1010.  11.  2019-01-13 03:28:55. 
823.  3.  235.  325.  63.  1008.  11.  2019-01-13 04:19:12. 
824.  3.  239.  323.  63.  1010.  11.  2019-01-13 05:09:28. 
825.  3.  232.  320.  64.  1011.  11.  2019-01-13 05:59:45. 
826.  3.  234.  315.  64.  1011.  11.  2019-01-13 06:50:02. 
827.  3.  233.  300.  66.  1012.  11.  2019-01-13 07:40:18. 
828.  3.  237.  281.  63.  1012.  11.  2019-01-13 08:30:35. 
829.  3.  237.  283.  62.  1012.  11.  2019-01-13 09:20:52. 
830.  3.  243.  272.  63.  1012.  11.  2019-01-13 09:51:44. 
831.  3.  241.  265.  62.  1013.  11.  2019-01-13 10:42:01. 
832.  3.  246.  254.  61.  1013.  11.  2019-01-13 11:32:17. 
833.  3.  258.  254.  61.  1013.  11.  2019-01-13 12:22:34. 
834.  3.  262.  246.  61.  1013.  11.  2019-01-13 13:12:51. 
835.  3.  267.  228.  61.  1013.  11.  2019-01-13 14:03:08. 
836.  3.  272.  224.  60.  1013.  11.  2019-01-13 14:53:24. 
837.  3.  271.  251.  60.  1013.  11.  2019-01-13 15:43:41. 
838.  3.  270.  262.  62.  1013.  11.  2019-01-13 16:33:58. 
839.  3.  276.  267.  60.  1012.  11.  2019-01-13 17:24:15. 
840.  3.  274.  283.  57.  1012.  11.  2019-01-13 18:14:31. 
841.  3.  270.  292.  56.  1013.  11.  2019-01-13 19:04:48. 
842.  3.  269.  301.  55.  1013.  11.  2019-01-13 19:55:05. 
843.  3.  270.  306.  55.  1013.  11.  2019-01-13 20:45:21. 
844.  3.  259.  311.  56.  1014.  11.  2019-01-13 21:35:38. 
845.  3.  261.  322.  56.  1014.  11.  2019-01-13 22:25:55. 
846.  3.  258.  324.  57.  1016.  11.  2019-01-13 23:16:12. 
847.  3.  253.  334.  60.  1015.  11.  2019-01-14 00:06:29. 
848.  3.  249.  336.  57.  1014.  11.  2019-01-14 00:56:45. 
849.  3.  225.  371.  63.  1014.  0.  2019-01-14 05:46:08. 
850.  3.  233.  353.  63.  1014.  0.  2019-01-14 06:36:25. 
851.  3.  232.  334.  64.  1015.  0.  2019-01-14 07:26:41. 
852.  3.  233.  300.  64.  1016.  0.  2019-01-14 08:16:56. 
853.  3.  232.  294.  64.  1015.  0.  2019-01-14 09:07:13. 
854.  3.  239.  289.  62.  1014.  0.  2019-01-14 09:57:28. 
855.  3.  246.  273.  62.  1014.  0.  2019-01-14 10:47:44. 
856.  3.  252.  261.  62.  1014.  0.  2019-01-14 11:38:00. 
857.  3.  250.  255.  61.  1014.  0.  2019-01-14 12:28:16. 
858.  3.  255.  241.  61.  1014.  0.  2019-01-14 13:18:32. 
859.  3.  264.  198.  60.  1013.  0.  2019-01-14 16:39:35. 
860.  3.  267.  174.  60.  1013.  0.  2019-01-14 17:29:51. 
861.  3.  261.  221.  57.  1013.  0.  2019-01-14 18:20:07. 
862.  3.  260.  283.  57.  1014.  0.  2019-01-14 19:10:23. 
863.  3.  258.  303.  61.  1015.  0.  2019-01-14 20:00:39. 
864.  3.  253.  314.  61.  1015.  0.  2019-01-14 21:41:12. 
865.  3.  256.  315.  62.  1016.  0.  2019-01-14 22:31:28. 
866.  3.  250.  328.  62.  1016.  0.  2019-01-14 23:21:44. 
867.  3.  245.  327.  62.  1015.  0.  2019-01-15 00:12:00. 
868.  3.  248.  329.  62.  1015.  0.  2019-01-15 01:02:17. 
869.  3.  244.  329.  62.  1015.  0.  2019-01-15 01:52:33. 
870.  3.  240.  337.  63.  1015.  0.  2019-01-15 02:42:49. 
871.  3.  242.  351.  63.  1015.  0.  2019-01-15 03:33:04. 
872.  3.  237.  350.  63.  1015.  0.  2019-01-15 04:23:20. 
873.  3.  240.  359.  64.  1016.  0.  2019-01-15 05:13:36. 
874.  3.  236.  358.  64.  1017.  0.  2019-01-15 06:03:52. 
875.  3.  234.  347.  65.  1016.  0.  2019-01-15 06:54:08. 
876.  3.  233.  320.  65.  1017.  0.  2019-01-15 07:44:24. 
877.  3.  235.  297.  65.  1017.  0.  2019-01-15 08:34:40. 
878.  3.  234.  272.  65.  1017.  0.  2019-01-15 09:24:55. 
879.  3.  242.  255.  64.  1016.  0.  2019-01-15 10:15:12. 
880.  3.  245.  264.  64.  1017.  0.  2019-01-15 11:05:28. 
881.  3.  253.  256.  64.  1017.  0.  2019-01-15 11:55:44. 
882.  3.  255.  244.  65.  1017.  0.  2019-01-15 12:45:59. 
883.  3.  256.  249.  66.  1016.  0.  2019-01-15 13:36:15. 
884.  3.  260.  252.  66.  1016.  0.  2019-01-15 14:26:31. 
885.  3.  262.  254.  66.  1015.  0.  2019-01-15 15:16:48. 
886.  3.  260.  254.  66.  1015.  0.  2019-01-15 16:07:04. 
887.  3.  265.  232.  65.  1015.  0.  2019-01-15 16:57:20. 
888.  3.  262.  243.  65.  1015.  0.  2019-01-15 17:47:36. 
889.  3.  255.  306.  70.  1016.  0.  2019-01-15 19:28:09. 

 

Home